Tiempo cada hora Barniewice

Hoy, 9 Marzo, Martes

Tiempo Temperatura Precipitaciones Viento Presión Humedad
00:00 -1°C° 0 mm 1 mps 754 mmHg 82%
01:00 -1°C° 0 mm 1 mps 754 mmHg 83%
02:00 -1°C° 0 mm 1 mps 754 mmHg 84%
03:00 -2°C° 0 mm 0 mps 754 mmHg 85%
04:00 -2°C° 0 mm 0 mps 754 mmHg 85%
05:00 -1°C° 0 mm 1 mps 754 mmHg 85%
06:00 -1°C° 0 mm 1 mps 754 mmHg 85%
07:00 -1°C° 0 mm 1 mps 754 mmHg 85%
08:00 -1°C° 0 mm 1 mps 754 mmHg 80%
09:00 -2°C° 0 mm 2 mps 754 mmHg 76%
10:00 -1°C° 0 mm 2 mps 754 mmHg 72%
11:00 -1°C° 0 mm 2 mps 754 mmHg 68%
12:00 -1°C° 0 mm 3 mps 754 mmHg 64%
13:00 0°C° 0 mm 3 mps 754 mmHg 60%
14:00 0°C° 0 mm 3 mps 753 mmHg 60%
15:00 0°C° 0 mm 3 mps 753 mmHg 59%
16:00 +1°C° 0 mm 2 mps 753 mmHg 59%
17:00 -1°C° 0 mm 2 mps 753 mmHg 63%
18:00 -2°C° 0 mm 2 mps 753 mmHg 67%
19:00 -3°C° 0 mm 2 mps 753 mmHg 72%
20:00 -3°C° 0 mm 2 mps 753 mmHg 72%
21:00 -4°C° 0 mm 3 mps 753 mmHg 72%
22:00 -4°C° 0 mm 3 mps 753 mmHg 72%
23:00 -4°C° 0 mm 3 mps 753 mmHg 72%

Mañana, 10 Marzo, Miércoles

Tiempo Temperatura Precipitaciones Viento Presión Humedad
00:00 -4°C° 0 mm 3 mps 753 mmHg 71%
01:00 -4°C° 0 mm 3 mps 753 mmHg 71%
02:00 -5°C° 0 mm 3 mps 752 mmHg 71%
03:00 -4°C° 0 mm 2 mps 752 mmHg 71%
04:00 -4°C° 0 mm 2 mps 752 mmHg 71%
05:00 -4°C° 0 mm 2 mps 752 mmHg 71%
06:00 -3°C° 0 mm 2 mps 752 mmHg 71%
07:00 -1°C° 0 mm 1 mps 752 mmHg 71%
08:00 0°C° 0 mm 1 mps 752 mmHg 65%
09:00 +1°C° 0 mm 1 mps 753 mmHg 60%
10:00 +2°C° 0 mm 1 mps 753 mmHg 54%
11:00 +2°C° 0 mm 1 mps 753 mmHg 51%
12:00 +3°C° 0 mm 1 mps 753 mmHg 47%
13:00 +4°C° 0 mm 1 mps 753 mmHg 44%
14:00 +3°C° 0 mm 1 mps 753 mmHg 46%
15:00 +3°C° 0 mm 1 mps 753 mmHg 49%
16:00 +3°C° 0 mm 1 mps 752 mmHg 51%
17:00 +2°C° 0 mm 1 mps 752 mmHg 56%
18:00 +1°C° 0 mm 1 mps 753 mmHg 61%
19:00 0°C° 0 mm 1 mps 753 mmHg 66%
20:00 0°C° 0 mm 1 mps 753 mmHg 66%
21:00 0°C° 0 mm 1 mps 753 mmHg 66%
22:00 -3°C° 0 mm 2 mps 752 mmHg 66%
23:00 -3°C° 0 mm 2 mps 752 mmHg 65%

Pasado mañana, 11 Marzo, Jueves

Tiempo Temperatura Precipitaciones Viento Presión Humedad
00:00 -4°C° 0 mm 3 mps 752 mmHg 64%
01:00 -4°C° 0 mm 3 mps 751 mmHg 64%
02:00 -4°C° 0 mm 3 mps 751 mmHg 63%
03:00 -4°C° 0 mm 4 mps 750 mmHg 63%
04:00 -4°C° 0 mm 4 mps 750 mmHg 62%
05:00 -5°C° 0 mm 5 mps 749 mmHg 61%
06:00 -4°C° 0 mm 5 mps 749 mmHg 59%
07:00 -4°C° 0 mm 6 mps 748 mmHg 58%
08:00 -3°C° 0 mm 7 mps 748 mmHg 54%
09:00 -2°C° 0 mm 8 mps 747 mmHg 49%
10:00 -1°C° 0 mm 9 mps 747 mmHg 45%
11:00 -2°C° 0 mm 10 mps 746 mmHg 46%
12:00 0°C° 0 mm 10 mps 745 mmHg 46%
13:00 0°C° 0 mm 10 mps 744 mmHg 46%
14:00 -2°C° 0.1 mm 10 mps 743 mmHg 57%
15:00 -2°C° 0.1 mm 10 mps 742 mmHg 68%
16:00 -3°C° 0.1 mm 10 mps 741 mmHg 80%
17:00 -3°C° 0.6 mm 10 mps 740 mmHg 85%
18:00 -2°C° 0.6 mm 10 mps 739 mmHg 90%
19:00 -1°C° 0.6 mm 9 mps 738 mmHg 96%
20:00 -1°C° 0.5 mm 8 mps 738 mmHg 95%
21:00 0°C° 0.5 mm 7 mps 737 mmHg 95%
22:00 +1°C° 0.5 mm 6 mps 737 mmHg 95%
23:00 +1°C° 0.1 mm 6 mps 737 mmHg 95%

12 Marzo, Viernes

Tiempo Temperatura Precipitaciones Viento Presión Humedad
00:00 +1°C° 0.1 mm 5 mps 737 mmHg 95%
01:00 +1°C° 0.1 mm 5 mps 737 mmHg 95%
02:00 +1°C° 0.1 mm 5 mps 737 mmHg 94%
03:00 0°C° 0.1 mm 5 mps 737 mmHg 94%
04:00 0°C° 0.1 mm 5 mps 737 mmHg 94%
05:00 0°C° 0.1 mm 5 mps 737 mmHg 94%
06:00 0°C° 0.1 mm 5 mps 737 mmHg 93%
07:00 0°C° 0.1 mm 5 mps 738 mmHg 93%
08:00 +1°C° 0 mm 5 mps 738 mmHg 91%
09:00 +1°C° 0 mm 6 mps 739 mmHg 90%
10:00 +2°C° 0 mm 6 mps 739 mmHg 88%
11:00 +2°C° 0 mm 7 mps 740 mmHg 81%
12:00 +3°C° 0 mm 7 mps 740 mmHg 75%
13:00 +4°C° 0 mm 8 mps 741 mmHg 69%
14:00 +3°C° 0 mm 7 mps 741 mmHg 70%
15:00 +3°C° 0 mm 6 mps 741 mmHg 71%
16:00 +3°C° 0 mm 5 mps 742 mmHg 73%
17:00 +2°C° 0 mm 5 mps 742 mmHg 76%
18:00 +1°C° 0 mm 5 mps 742 mmHg 79%
19:00 0°C° 0 mm 4 mps 742 mmHg 82%
20:00 0°C° 0 mm 4 mps 742 mmHg 83%
21:00 0°C° 0 mm 5 mps 742 mmHg 84%
22:00 0°C° 0 mm 5 mps 742 mmHg 84%
23:00 0°C° 0 mm 5 mps 741 mmHg 84%

13 Marzo, Sábado

Tiempo Temperatura Precipitaciones Viento Presión Humedad
00:00 0°C° 0 mm 5 mps 741 mmHg 85%
01:00 -1°C° 0 mm 6 mps 740 mmHg 85%
02:00 -1°C° 0 mm 6 mps 740 mmHg 84%
03:00 -1°C° 0 mm 6 mps 739 mmHg 83%
04:00 -1°C° 0 mm 7 mps 738 mmHg 83%
05:00 -1°C° 0.2 mm 6 mps 738 mmHg 85%
06:00 +1°C° 0.2 mm 6 mps 738 mmHg 87%
07:00 +1°C° 0.2 mm 6 mps 738 mmHg 88%
08:00 +1°C° 0 mm 6 mps 739 mmHg 85%
09:00 +2°C° 0 mm 7 mps 739 mmHg 81%
10:00 +2°C° 0 mm 7 mps 739 mmHg 78%
11:00 +3°C° 0 mm 7 mps 739 mmHg 75%
12:00 +3°C° 0 mm 7 mps 739 mmHg 72%
13:00 +3°C° 0 mm 7 mps 740 mmHg 69%
14:00 +4°C° 0 mm 6 mps 739 mmHg 68%
15:00 +5°C° 0 mm 5 mps 739 mmHg 67%
16:00 +5°C° 0 mm 5 mps 739 mmHg 66%
17:00 +5°C° 0.2 mm 5 mps 738 mmHg 73%
18:00 +3°C° 0.2 mm 6 mps 737 mmHg 80%
19:00 +3°C° 0.2 mm 7 mps 737 mmHg 87%
20:00 +3°C° 0.2 mm 7 mps 736 mmHg 87%
21:00 +3°C° 0.2 mm 7 mps 736 mmHg 88%
22:00 +3°C° 0.2 mm 7 mps 736 mmHg 88%
23:00 +4°C° 0.1 mm 7 mps 735 mmHg 88%

14 Marzo, Domingo

Tiempo Temperatura Precipitaciones Viento Presión Humedad
00:00 +4°C° 0.1 mm 7 mps 735 mmHg 88%
01:00 +4°C° 0.1 mm 7 mps 735 mmHg 88%
02:00 +4°C° 0.1 mm 7 mps 734 mmHg 86%
03:00 +4°C° 0.1 mm 7 mps 734 mmHg 84%
04:00 +4°C° 0.1 mm 7 mps 734 mmHg 83%
05:00 +4°C° 0.1 mm 6 mps 734 mmHg 84%
06:00 +3°C° 0.1 mm 6 mps 733 mmHg 86%
07:00 +3°C° 0.1 mm 5 mps 733 mmHg 87%
08:00 +3°C° 0.5 mm 6 mps 733 mmHg 88%
09:00 +3°C° 0.5 mm 6 mps 734 mmHg 88%
10:00 +2°C° 0.5 mm 6 mps 734 mmHg 88%
11:00 +3°C° 0.5 mm 7 mps 734 mmHg 82%
12:00 +2°C° 0.5 mm 8 mps 735 mmHg 76%
13:00 +3°C° 0.5 mm 9 mps 735 mmHg 70%
14:00 +3°C° 0.1 mm 9 mps 735 mmHg 70%
15:00 +4°C° 0.1 mm 8 mps 735 mmHg 70%
16:00 +4°C° 0.1 mm 8 mps 735 mmHg 70%
17:00 +2°C° 0.2 mm 8 mps 736 mmHg 77%
18:00 +1°C° 0.2 mm 8 mps 736 mmHg 84%
19:00 0°C° 0.2 mm 7 mps 736 mmHg 91%
20:00 0°C° 0.1 mm 7 mps 737 mmHg 89%
21:00 0°C° 0.1 mm 7 mps 737 mmHg 88%
22:00 0°C° 0.1 mm 7 mps 738 mmHg 86%
23:00 0°C° 0 mm 7 mps 738 mmHg 87%
Mostrar más

Necesitamos Su Consentimiento

Meteoprog y nuestros Proveedores de Servicios pueden almacenar y acceder a sus datos personales como cookies, identificadores de dispositivo u otras tecnologías similares de su dispositivo y procesar dichos datos para personalizar contenido y anuncios, además de ofrecer funciones de redes sociales y analizar el tráfico.

  • Almacenar y/o acceder a información en su dispositivo

    Se puede almacenar o acceder a cookies, identificadores de dispositivo u otra información de su dispositivo para los fines anteriormente indicados.

  • Anuncios y contenido personalizados, medición de anuncios y contenido, percepciones del público, y desarrollo de productos

    Los anuncios y el contenido pueden personalizarse en base a su perfil. Se pueden añadir más datos para personalizar mejor los anuncios y contenidos. Se puede medir el rendimiento de los anuncios y contenidos. Se puede obtener la percepción sobre el público que ha visto los anuncios y contenidos. Dichos datos pueden usarse para desarrollar o mejorar la experiencia del usuario, sistemas y software.

Al hacer clic en ‘Estoy De Acuerdo’ usted permitirá el uso de las cookies, identificadores de dispositivo, balizas web u otras tecnologías similares indicadas. Su configuración puede cambiarse desde el navegador de su dispositivo.

Para ciertos fines, los intereses legítimos pueden ser considerados por encima del consentimiento. Puede leer más sobre ello en nuestra Política de Privacidad y Cookies.